Pleasanton, TX

10:27 AM CDT on August 22, 2017 (GMT -0500)
Pleasanton Municipal

Weather History for KPEZ - December, 2013

Change the Weather History Date:

Sunday, December 1, 2013

  Actual Average Record
Temperature  
Mean Temperature 62 °F -  
Max Temperature 75 °F 69 °F 82 °F (2012)
Min Temperature 48 °F 47 °F 26 °F (2010)
Degree Days  
Heating Degree Days 4    
Growing Degree Days 12 (Base 50)    
Moisture  
Dew Point 55 °F    
Average Humidity 85    
Maximum Humidity 98    
Minimum Humidity 57    
Precipitation  
Precipitation 0.00 in - - ()
Sea Level Pressure  
Sea Level Pressure 30.12 in    
Wind  
Wind Speed 2 mph (WSW)    
Max Wind Speed 8 mph    
Max Gust Speed -    
Visibility 8 miles    
Events Fog    
Averages and records for this station are not official NWS values.
T = Trace of Precipitation, MM = Missing Value Source: NWS Daily Summary

Daily Weather History Graph

Daily Weather History Graph

Search for Another Location

Airport or City:

Trip Planner

Search our weather history database for the weather conditions in past years. The results will help you decide how hot, cold, wet, or windy it might be!

Date:

Astronomy

Dec. 01, 2013 Rise Set
Actual Time 7:10 AM CST 5:36 PM CST
Civil Twilight 6:44 AM CST 6:01 PM CST
Nautical Twilight 6:15 AM CST 6:31 PM CST
Astronomical Twilight 5:46 AM CST 6:59 PM CST
Moon 5:36 AM CST (12/1) 4:42 PM CST (12/1)
Length of Visible Light 11h 17m
Length of Day
10h 25m
Waning Crescent, 2% of the Moon is Illuminated
Dec 1
Waning Crescent
Dec 2
New
Dec 9
First Quarter
Dec 17
Full
Dec 25
Last Quarter

Hourly Weather History & Observations

Time (CST) Temp. Dew Point Humidity Pressure Visibility Wind Dir Wind Speed Gust Speed Precip Events Conditions
12:15 AM 57.2 °F 54.1 °F 89% 30.21 in 10.0 mi Calm Calm - N/A   Scattered Clouds
12:35 AM 55.6 °F 53.6 °F 93% 30.20 in 10.0 mi Calm Calm - N/A   Scattered Clouds
12:55 AM 55.6 °F 54.0 °F 94% 30.19 in 10.0 mi Calm Calm - N/A   Scattered Clouds
1:15 AM 54.9 °F 53.6 °F 96% 30.19 in 10.0 mi Calm Calm - N/A   Clear
1:35 AM 54.1 °F 52.9 °F 95% 30.19 in 2.0 mi Calm Calm - N/A   Clear
1:55 AM 53.1 °F 52.0 °F 96% 30.20 in 2.0 mi Calm Calm - N/A   Clear
2:15 AM 50.9 °F 49.8 °F 96% 30.20 in 7.0 mi Calm Calm - N/A   Clear
2:35 AM 51.3 °F 50.4 °F 97% 30.19 in 7.0 mi Calm Calm - N/A   Clear
2:55 AM 50.5 °F 49.6 °F 97% 30.20 in 7.0 mi Calm Calm - N/A   Clear
3:15 AM 52.3 °F 51.4 °F 97% 30.20 in 5.0 mi Calm Calm - N/A   Scattered Clouds
3:35 AM 50.9 °F 50.0 °F 97% 30.20 in 4.0 mi Calm Calm - N/A   Mostly Cloudy
3:55 AM 52.0 °F 51.1 °F 97% 30.19 in 10.0 mi Calm Calm - N/A   Overcast
4:15 AM 51.3 °F 50.4 °F 97% 30.18 in 7.0 mi Calm Calm - N/A   Overcast
4:35 AM 51.4 °F 50.5 °F 97% 30.17 in 7.0 mi Calm Calm - N/A   Mostly Cloudy
4:55 AM 50.9 °F 50.0 °F 97% 30.18 in 5.0 mi NW 3.5 mph - N/A   Mostly Cloudy
5:15 AM 51.1 °F 50.2 °F 97% 30.18 in 5.0 mi Calm Calm - N/A   Mostly Cloudy
5:35 AM 52.2 °F 51.3 °F 97% 30.18 in 5.0 mi Calm Calm - N/A   Mostly Cloudy
5:55 AM 51.3 °F 50.4 °F 97% 30.17 in 4.0 mi Calm Calm - N/A   Scattered Clouds
6:15 AM 50.2 °F 49.3 °F 97% 30.18 in 0.5 mi Calm Calm - N/A Fog Fog
6:35 AM 49.5 °F 48.6 °F 97% 30.17 in 5.0 mi Calm Calm - N/A   Scattered Clouds
6:55 AM 48.6 °F 47.7 °F 97% 30.18 in 0.2 mi Calm Calm - N/A Fog Fog
7:15 AM 48.7 °F 47.8 °F 97% 30.18 in 0.2 mi Calm Calm - N/A Fog Fog
7:35 AM 49.3 °F 48.6 °F 97% 30.18 in 0.2 mi Calm Calm - N/A Fog Fog
7:55 AM 49.6 °F 49.1 °F 98% 30.18 in 0.2 mi Calm Calm - N/A Fog Fog
8:15 AM 50.5 °F 50.0 °F 98% 30.18 in 0.2 mi Calm Calm - N/A Fog Fog
8:35 AM 51.8 °F 51.1 °F 97% 30.19 in 0.2 mi Calm Calm - N/A Fog Fog
8:55 AM 53.6 °F 52.7 °F 97% 30.18 in 0.2 mi Calm Calm - N/A Fog Fog
9:15 AM 55.9 °F 55.2 °F 97% 30.19 in 0.8 mi Calm Calm - N/A   Overcast
9:35 AM 58.1 °F 57.4 °F 97% 30.20 in 5.0 mi Calm Calm - N/A   Scattered Clouds
9:55 AM 58.6 °F 57.7 °F 97% 30.20 in 10.0 mi Calm Calm - N/A   Mostly Cloudy
10:15 AM 61.9 °F 57.7 °F 86% 30.19 in 10.0 mi Calm Calm - N/A   Mostly Cloudy
10:35 AM 65.3 °F 57.7 °F 76% 30.19 in 10.0 mi SSW 3.5 mph - N/A   Overcast
10:55 AM 66.2 °F 58.3 °F 76% 30.18 in 10.0 mi South 6.9 mph - N/A   Overcast
11:15 AM 69.1 °F 58.8 °F 70% 30.18 in 10.0 mi WSW 4.6 mph - N/A   Mostly Cloudy
11:35 AM 69.4 °F 59.0 °F 69% 30.16 in 10.0 mi SSW 6.9 mph - N/A   Scattered Clouds
11:55 AM 71.1 °F 59.0 °F 66% 30.15 in 10.0 mi SSW 5.8 mph - N/A   Clear
12:15 PM 73.2 °F 58.8 °F 61% 30.14 in 10.0 mi SSW 8.1 mph - N/A   Scattered Clouds
12:35 PM 72.3 °F 58.5 °F 62% 30.13 in 10.0 mi SSW 5.8 mph - N/A   Mostly Cloudy
12:55 PM 73.4 °F 58.8 °F 60% 30.12 in 10.0 mi SSW 8.1 mph - N/A   Mostly Cloudy
1:15 PM 74.1 °F 58.8 °F 59% 30.11 in 10.0 mi SW 8.1 mph - N/A   Mostly Cloudy
1:35 PM 73.8 °F 58.6 °F 59% 30.10 in 10.0 mi WSW 8.1 mph - N/A   Scattered Clouds
1:55 PM 75.0 °F 58.8 °F 57% 30.09 in 10.0 mi SW 8.1 mph - N/A   Scattered Clouds
2:15 PM 72.9 °F 59.0 °F 62% 30.08 in 10.0 mi West 4.6 mph - N/A   Scattered Clouds
2:35 PM 73.2 °F 59.0 °F 61% 30.07 in 10.0 mi SW 5.8 mph - N/A   Scattered Clouds
2:55 PM 73.0 °F 58.8 °F 61% 30.06 in 10.0 mi WSW 3.5 mph - N/A   Clear
3:15 PM 72.3 °F 58.8 °F 62% 30.05 in 10.0 mi WSW 4.6 mph - N/A   Clear
3:35 PM 71.6 °F 58.8 °F 64% 30.05 in 10.0 mi West 3.5 mph - N/A   Clear
3:55 PM 71.8 °F 59.2 °F 64% 30.04 in 10.0 mi West 4.6 mph - N/A   Clear
4:15 PM 71.2 °F 59.4 °F 66% 30.04 in 10.0 mi West 6.9 mph - N/A   Clear
4:35 PM 69.4 °F 59.2 °F 70% 30.05 in 10.0 mi WNW 8.1 mph - N/A   Clear
4:55 PM 68.4 °F 59.2 °F 72% 30.04 in 10.0 mi West 5.8 mph - N/A   Clear
5:15 PM 68.0 °F 59.0 °F 73% 30.03 in 10.0 mi West 3.5 mph - N/A   Clear
5:35 PM 66.0 °F 58.8 °F 78% 30.03 in 10.0 mi WNW 3.5 mph - N/A   Clear
5:55 PM 64.0 °F 58.1 °F 81% 30.03 in 10.0 mi West 3.5 mph - N/A   Clear
6:15 PM 61.3 °F 56.8 °F 85% 30.03 in 10.0 mi WNW 3.5 mph - N/A   Clear
6:35 PM 61.2 °F 57.2 °F 87% 30.03 in 10.0 mi WNW 4.6 mph - N/A   Clear
6:55 PM 61.7 °F 57.4 °F 86% 30.03 in 10.0 mi WNW 4.6 mph - N/A   Clear
7:15 PM 61.2 °F 57.2 °F 87% 30.03 in 10.0 mi WNW 3.5 mph - N/A   Clear
7:35 PM 61.2 °F 57.2 °F 87% 30.03 in 10.0 mi Calm Calm - N/A   Clear
7:55 PM 60.8 °F 57.2 °F 88% 30.02 in 10.0 mi Calm Calm - N/A   Clear
8:15 PM 58.3 °F 55.6 °F 91% 30.03 in 10.0 mi WNW 3.5 mph - N/A   Clear
8:35 PM 59.0 °F 56.5 °F 91% 30.03 in 10.0 mi West 3.5 mph - N/A   Clear
8:55 PM 59.4 °F 56.7 °F 91% 30.02 in 10.0 mi WSW 3.5 mph - N/A   Clear
9:15 PM 59.2 °F 56.5 °F 91% 30.02 in 10.0 mi West 3.5 mph - N/A   Clear
9:35 PM 57.9 °F 55.8 °F 92% 30.02 in 10.0 mi West 3.5 mph - N/A   Clear
9:55 PM 58.5 °F 56.1 °F 92% 30.01 in 10.0 mi Calm Calm - N/A   Clear
10:15 PM 56.7 °F 54.9 °F 94% 30.01 in 7.0 mi Calm Calm - N/A   Clear
10:35 PM 57.7 °F 56.1 °F 94% 30.01 in 10.0 mi Calm Calm - N/A   Clear
10:55 PM 56.1 °F 54.5 °F 94% 30.00 in 7.0 mi SSE 3.5 mph - N/A   Clear
11:15 PM 55.2 °F 54.0 °F 96% 30.01 in 4.0 mi Calm Calm - N/A   Clear
11:35 PM 54.7 °F 53.6 °F 96% 30.01 in 4.0 mi Calm Calm - N/A   Clear
11:55 PM 53.8 °F 52.7 °F 96% 30.01 in 5.0 mi Calm Calm - N/A   Clear